Location: Bailleul
(50.3375°N, 2.8513°E)
Time: 02:18:49
(UTC+00:00)

Cosmos 2016 Rocket - Pass Details

Date: 29 October 2021
Orbit: 947 x 1000 km, 83.0° (Epoch: 06 December)

Event Time Altitude Azimuth Distance (km) Brightness Sun altitude
Rises 17:47:17 0° 145° (SE) 3,645 6.7 -12.9°
Reaches altitude 10° 17:50:17 10° 131° (SE) 2,695 5.9 -13.4°
Maximum altitude 17:54:56 23° 82° (E) 1,912 4.9 -14.1°
Drops below altitude 10° 17:59:34 10° 32° (NNE) 2,688 6.0 -14.8°
Sets 18:02:33 0° 19° (NNE) 3,634 6.8 -15.3°
